Theta_e
300 301 301 303 306 308 310 312 314 313 313 313 313 314 315 315 315 316 317 320 320 320 319 319 318 318 317 318 319 319 320 320 320 319 319 319 319 319 318 318 318 318 317 317 317 317 317 317 317 318 318 318 318 317 317 317 317 317 318 318 319 319 319 319 318 318 318 317 317 317 317 317 317 317 317 317 317 316 316 316 315 315 315 315 315 315
301 301 301 303 305 307 308 311 313 314 313 312 312 313 313 313 314 314 316 319 320 319 318 318 318 318 318 318 318 319 319 319 319 319 319 319 318 318 318 318 317 317 317 317 317 317 317 317 317 317 317 317 316 316 316 316 316 316 317 317 318 318 318 317 317 317 317 316 316 316 316 316 316 316 316 316 316 316 315 315 315 315 315 314 315 315
301 301 301 303 304 306 307 309 311 313 314 313 312 312 312 313 313 314 314 316 318 318 318 318 317 317 317 317 318 319 319 319 319 319 318 318 318 318 318 317 317 317 316 316 316 316 316 316 316 316 316 316 316 316 315 315 315 316 316 316 317 316 316 316 316 316 316 316 315 315 315 316 316 316 316 315 315 315 315 315 314 314 314 314 314 314
302 302 302 303 303 304 305 307 310 312 313 313 312 312 311 311 312 313 314 315 316 317 318 318 317 317 317 317 318 318 318 319 319 318 318 318 318 317 317 317 317 316 316 316 316 316 316 316 316 315 315 315 316 315 315 315 315 315 315 315 315 315 315 315 315 315 315 315 315 315 315 315 315 314 314 314 314 314 314 314 314 314 314 313 313 313
302 302 302 303 303 303 304 306 308 310 311 311 311 311 310 310 311 311 313 315 315 315 316 317 317 316 316 316 317 318 318 318 318 318 318 318 318 317 317 317 316 316 316 316 316 316 316 315 315 315 315 315 315 315 315 315 315 315 314 314 314 314 314 314 314 314 314 314 314 314 314 314 314 314 314 314 314 314 314 314 314 313 313 313 313 313
301 301 301 303 303 303 303 306 307 309 309 310 310 310 310 309 309 310 311 313 313 313 312 313 313 314 316 316 317 317 318 318 318 318 318 318 317 317 317 316 316 316 316 316 316 315 315 315 315 315 315 315 315 315 314 314 314 314 314 314 314 314 314 314 314 313 313 313 314 314 313 313 313 314 313 314 313 314 313 313 313 313 313 312 312 312
301 301 301 302 302 302 303 305 307 309 309 309 309 309 309 309 308 309 310 311 312 311 310 309 309 311 313 315 316 317 317 318 317 317 317 317 317 317 317 316 316 316 316 316 315 315 315 315 315 315 315 315 315 314 314 314 314 313 313 313 313 313 313 313 313 313 313 313 313 313 313 313 313 313 313 313 313 313 312 312 312 312 312 312 311 311
301 301 301 302 302 302 303 304 305 307 308 309 308 308 308 307 307 308 309 311 311 311 310 309 308 309 310 313 315 316 317 317 317 317 317 316 316 316 316 316 316 316 316 315 315 315 315 314 314 314 314 314 314 314 314 314 313 313 312 312 312 312 313 313 313 313 313 313 313 313 312 312 312 313 313 313 313 312 312 312 312 312 311 311 311 311
303 302 301 302 302 303 303 302 302 302 305 308 308 307 307 306 306 306 309 310 310 310 309 309 309 309 310 313 314 315 316 316 315 316 315 315 315 315 315 316 316 315 315 315 315 314 314 314 314 314 314 314 314 314 314 313 313 312 312 312 312 312 312 312 313 313 313 313 313 312 312 312 312 312 312 312 312 312 312 312 311 311 311 311 310 311
303 303 302 301 302 303 304 303 301 300 301 306 308 308 307 306 305 305 306 307 308 308 308 309 310 309 309 311 313 314 315 315 315 315 315 314 315 315 315 315 315 315 315 315 314 314 314 314 314 313 313 313 313 313 313 313 312 312 311 311 311 312 312 312 312 313 313 313 312 312 312 311 311 311 312 312 312 312 312 311 311 311 310 310 310 310
302 302 301 301 301 302 303 302 300 300 301 305 307 309 308 306 305 304 304 305 306 307 308 310 310 308 307 306 308 311 314 314 314 315 315 314 314 314 314 314 314 314 314 314 314 314 314 314 314 314 313 313 313 313 313 312 312 312 311 311 311 311 312 312 312 312 313 312 312 312 311 311 311 311 311 311 311 311 311 311 310 310 310 310 309 310
301 301 301 301 301 301 301 301 302 303 304 305 306 305 306 306 306 305 304 304 305 306 306 307 306 304 302 302 303 306 310 312 313 313 313 313 314 314 314 313 313 314 314 314 314 314 314 314 314 314 313 313 313 313 312 312 312 311 311 311 311 311 312 312 312 312 312 312 312 311 311 311 310 310 310 310 310 310 310 310 310 310 310 310 309 309
300 300 300 300 300 300 301 302 303 304 305 305 304 304 303 305 306 306 305 305 305 306 306 304 303 301 300 300 300 303 307 309 309 309 309 309 309 310 312 312 312 312 313 313 313 314 314 314 314 314 313 313 313 313 312 311 311 311 311 311 311 311 311 312 312 312 311 311 311 311 310 310 310 310 309 309 309 309 309 309 310 309 309 309 309 309
300 300 300 301 300 299 300 302 302 303 304 304 304 305 305 305 305 305 305 304 305 306 305 303 302 300 300 299 300 302 305 306 307 306 305 303 302 303 307 309 310 310 312 312 312 312 313 313 314 313 313 313 313 312 311 311 310 310 310 310 310 311 311 311 311 311 311 310 310 310 309 309 309 309 308 308 308 308 308 308 308 308 308 308 308 308
299 300 301 300 299 299 300 301 302 302 302 301 302 303 304 305 305 304 304 303 304 304 305 302 300 299 299 299 299 301 304 306 306 305 303 300 299 299 302 304 306 307 309 309 309 310 312 313 313 313 313 313 312 312 311 311 310 310 310 310 310 310 310 310 310 310 309 309 309 308 308 308 308 307 307 307 307 307 306 306 306 307 306 307 306 306
299 300 301 299 298 298 298 299 299 299 298 299 299 300 302 303 304 304 303 303 303 303 303 301 299 299 299 299 299 300 303 306 305 303 301 299 298 297 299 302 304 304 305 305 306 307 310 312 312 312 312 311 310 310 309 310 310 309 309 309 309 309 309 309 308 308 308 308 307 307 307 306 306 306 306 305 305 305 305 305 305 305 305 305 305 305
298 300 300 298 296 295 295 296 297 297 297 297 298 300 302 303 304 304 304 303 303 302 302 300 299 297 297 298 299 300 301 304 304 302 300 297 297 297 297 301 302 302 302 303 304 305 308 309 310 311 311 309 309 309 309 309 309 308 308 308 308 308 307 307 307 307 307 306 306 306 305 305 305 304 304 304 304 304 303 303 303 303 303 303 303 303
294 295 296 295 294 293 293 294 294 295 295 296 297 299 301 303 304 305 305 304 303 302 302 301 300 299 297 297 298 299 300 303 303 301 298 296 296 296 297 300 301 302 301 301 303 304 307 308 309 309 309 308 308 308 308 308 308 308 307 307 307 307 306 306 305 305 305 305 304 304 303 303 303 303 303 302 302 302 302 302 302 302 302 302 302 302
289 290 291 291 291 291 291 292 292 293 293 294 296 297 299 301 303 304 305 304 304 303 303 302 302 301 301 298 297 297 298 302 302 299 296 295 294 295 297 299 299 299 300 300 301 303 305 307 308 308 308 307 307 307 307 307 307 306 306 306 305 305 305 304 304 304 303 303 303 303 302 302 302 301 301 301 301 301 301 301 301 301 301 301 301 300
287 287 288 289 290 290 290 290 291 292 292 293 295 296 297 299 301 303 304 305 304 304 304 303 303 302 301 298 296 296 298 301 301 298 295 294 294 295 296 298 298 298 297 297 299 301 304 306 307 307 306 306 306 306 306 306 305 305 304 304 304 304 303 303 303 302 302 302 302 301 301 301 301 300 300 300 300 300 300 300 300 300 300 300 300 299
286 286 288 289 289 289 288 289 291 292 293 293 294 295 296 297 299 301 302 303 304 304 304 303 301 299 299 297 295 294 296 300 299 297 294 293 293 294 296 297 297 296 295 295 297 300 304 305 306 306 305 305 305 305 305 304 304 304 303 303 303 302 302 302 301 301 301 301 300 300 300 300 299 299 299 299 299 299 299 299 299 299 299 299 299 299
287 287 288 289 289 289 289 289 291 292 293 293 292 292 293 294 295 296 298 300 301 300 299 297 295 295 295 293 293 293 294 298 298 296 294 293 292 293 295 296 296 295 294 295 297 299 302 303 304 304 305 304 304 304 303 303 303 302 302 302 301 301 301 301 300 300 300 300 299 299 299 299 298 298 298 298 298 298 298 298 298 298 298 298 298 298
288 288 289 290 290 290 290 290 291 291 292 292 292 291 291 292 292 293 294 296 297 296 294 293 293 293 293 292 292 292 293 296 297 297 295 293 292 292 293 296 296 295 293 294 295 297 298 299 301 303 303 303 303 302 302 302 302 301 301 301 300 300 300 299 299 299 299 298 298 298 298 298 298 298 298 298 298 298 298 298 298 298 297 297 297 296
289 289 290 290 291 291 291 291 291 291 291 291 291 292 292 292 293 293 294 294 294 293 292 292 292 291 292 292 291 291 291 293 295 296 296 293 292 292 293 295 294 293 291 292 293 294 294 295 297 300 301 301 301 301 301 300 300 300 300 299 299 299 298 298 298 298 298 298 297 297 297 297 297 297 297 297 297 297 297 297 297 297 296 296 295 295
289 290 290 291 291 292 292 292 291 291 291 291 290 291 292 293 293 294 295 294 294 293 293 292 291 290 290 290 290 290 290 291 292 294 295 293 291 291 293 295 294 292 290 291 292 292 292 292 293 295 298 300 300 300 299 299 299 299 299 298 298 298 298 297 297 297 297 297 297 297 296 296 296 296 296 296 296 296 296 296 296 296 295 295 294 294
290 290 290 291 291 292 292 292 292 292 292 291 290 290 290 292 292 293 293 293 293 293 293 292 290 289 288 288 288 288 289 290 291 292 293 292 291 291 292 294 293 291 289 290 290 291 290 290 290 292 293 296 298 298 298 298 298 298 297 297 297 297 297 297 296 296 296 296 296 296 296 296 295 295 295 295 295 295 295 295 295 294 294 293 293 293
289 290 290 290 290 290 291 291 292 292 292 291 290 289 289 290 290 289 288 289 290 292 292 290 288 287 287 287 287 287 288 289 289 289 291 292 291 290 290 292 291 290 288 288 289 289 289 289 289 289 290 293 295 297 297 297 297 297 297 296 296 296 296 296 296 296 295 295 295 295 295 295 295 294 294 294 294 294 295 294 294 293 293 293 293 293
287 288 288 288 288 288 288 289 290 290 290 290 290 289 287 287 286 285 284 286 288 291 292 290 289 288 287 286 285 286 287 287 287 288 289 291 291 290 289 290 290 290 288 287 287 288 288 287 287 287 288 289 291 293 295 295 296 296 296 296 295 295 295 295 295 295 295 295 294 294 294 294 293 293 293 293 293 294 294 294 293 293 292 292 293 293
285 285 285 286 286 286 286 286 287 288 289 288 288 287 286 284 283 282 283 284 287 289 290 289 289 288 286 285 285 285 285 285 286 287 288 290 290 289 289 290 290 289 288 287 286 286 286 285 285 286 286 288 289 290 292 293 294 294 294 294 294 294 295 294 294 294 294 294 293 293 293 293 292 292 292 293 293 293 293 293 293 293 292 292 292 292
281 282 282 282 283 283 283 283 284 285 286 286 286 286 285 283 282 282 282 284 285 287 287 287 287 287 286 286 285 285 284 284 285 286 287 288 288 288 289 289 289 289 289 287 286 284 284 284 284 285 286 287 288 288 290 291 292 292 293 293 293 294 294 294 293 293 293 293 292 292 292 292 291 291 292 292 292 292 292 292 292 292 292 292 292 292
279 279 279 280 280 280 281 281 281 282 283 284 284 284 283 282 282 282 282 283 284 285 285 286 286 286 286 286 285 283 282 282 284 286 286 285 286 287 288 288 288 288 288 288 286 285 283 283 283 284 285 286 287 287 288 289 289 290 290 291 292 292 292 292 292 292 292 292 291 291 291 291 291 291 291 291 291 291 292 292 292 292 292 292 291 291
278 278 278 278 279 279 279 279 279 280 280 280 281 281 282 282 282 282 282 282 282 283 284 284 284 284 284 284 283 282 281 281 284 286 285 284 284 285 287 287 286 285 285 287 288 287 284 283 283 284 285 285 285 286 287 287 287 287 288 288 289 290 291 291 291 291 290 290 290 290 289 290 290 290 290 290 290 291 291 291 291 291 291 291 291 291
277 277 277 278 278 278 278 278 278 279 279 279 279 279 280 281 281 281 281 282 282 282 282 282 282 282 281 281 280 280 280 281 283 285 286 284 283 283 284 285 285 284 283 284 285 286 285 283 283 283 283 284 285 285 285 286 286 286 286 287 287 288 289 289 289 289 289 288 288 288 288 288 289 289 289 290 290 290 290 290 291 291 291 291 290 290
277 277 277 277 277 277 277 277 277 278 278 278 278 279 279 279 280 280 281 281 281 281 281 281 281 281 281 280 279 279 279 280 283 285 286 284 283 283 283 283 283 283 283 283 283 283 283 283 283 282 282 283 284 284 284 285 285 285 286 286 286 286 287 288 288 287 287 287 287 287 287 288 288 288 289 289 289 289 290 290 290 290 291 291 291 290
276 275 275 276 276 276 276 276 277 277 277 277 278 278 278 278 278 279 280 280 281 281 281 281 281 281 281 280 279 278 278 280 282 284 285 284 283 283 282 282 282 282 282 282 282 282 282 282 282 282 281 281 282 283 283 284 284 285 285 285 285 286 286 287 286 286 286 286 286 286 286 286 287 288 288 288 288 289 289 289 290 290 290 290 290 290
274 274 274 274 275 275 275 275 276 276 276 277 277 277 277 277 278 278 278 279 280 281 281 281 281 281 280 280 279 278 278 279 281 283 284 284 283 283 282 282 282 282 282 281 282 282 282 282 283 283 282 281 281 281 283 284 284 284 284 285 285 285 285 286 286 286 286 285 285 285 285 286 286 287 287 287 288 288 288 288 289 289 289 289 289 289
274 273 274 274 274 274 274 274 275 275 275 276 276 277 277 277 277 278 278 278 279 280 280 281 281 281 281 280 279 279 279 279 280 282 283 283 284 283 282 282 282 282 282 281 281 281 281 281 282 282 281 280 280 280 281 283 283 283 283 284 284 284 285 285 285 285 285 285 285 285 285 285 286 286 286 287 287 287 287 287 288 288 288 288 288 288
273 273 273 273 273 273 274 274 274 274 275 275 276 276 277 277 277 278 278 278 278 278 279 279 280 280 281 281 280 280 280 280 280 281 281 282 283 283 282 282 282 283 282 282 282 282 281 281 281 280 280 280 280 281 281 282 282 282 282 283 284 284 284 284 284 284 285 285 285 285 285 285 285 285 285 285 286 286 286 286 286 287 287 287 286 287
272 272 272 273 273 273 273 273 274 274 275 275 276 277 277 277 278 278 278 278 278 278 278 278 278 279 279 280 280 280 280 280 279 280 280 281 282 283 282 282 282 282 282 282 282 282 281 281 280 280 279 279 279 280 281 281 281 282 282 283 283 283 283 283 283 284 284 284 284 284 284 284 284 284 284 284 284 284 284 284 285 285 286 286 285 285
271 272 272 273 273 273 274 274 274 274 275 275 276 277 277 277 277 278 278 278 278 278 278 278 278 278 278 279 279 279 280 279 279 279 279 280 281 281 282 281 281 281 282 282 282 282 281 281 281 281 280 280 279 279 280 280 281 282 283 282 282 282 283 283 283 283 283 283 283 283 283 284 284 283 283 283 283 283 283 283 284 284 285 284 284 284
271 271 272 272 273 274 274 274 275 275 275 275 275 275 275 276 276 276 276 277 277 278 278 278 278 278 277 277 278 278 278 279 279 279 278 279 280 280 280 280 281 281 281 281 281 281 281 281 281 281 280 280 280 280 280 281 282 283 282 281 281 282 283 283 282 282 283 283 283 283 283 283 282 282 283 283 283 283 283 283 283 284 284 284 284 283
271 271 271 272 273 273 274 274 275 275 275 274 274 274 274 275 275 275 275 276 276 276 276 277 277 277 276 276 277 277 277 278 279 279 279 279 279 279 279 280 280 280 280 280 280 280 281 281 281 280 281 281 280 280 280 280 281 281 281 281 281 281 282 282 282 282 282 282 282 282 282 281 281 281 282 282 282 282 283 283 283 283 283 283 283 283
271 271 271 272 273 273 274 274 274 274 274 273 273 273 273 274 275 275 275 275 275 275 275 276 276 276 275 275 275 276 276 277 278 279 280 279 279 279 279 279 279 279 280 279 279 279 279 280 279 279 279 280 280 280 279 280 279 279 279 280 280 280 280 280 281 281 281 281 281 281 281 280 280 281 281 281 281 282 282 282 282 282 283 282 282 282
271 271 272 272 273 273 273 273 273 273 273 272 272 272 273 274 274 275 274 274 274 275 275 275 276 275 275 274 274 275 276 276 277 278 279 279 279 279 278 278 278 279 279 278 278 278 278 278 278 278 279 279 279 279 279 279 279 279 279 280 280 280 279 280 280 280 280 280 280 280 280 280 280 280 280 281 281 281 281 281 281 281 282 282 282 282
271 271 271 272 272 272 272 272 272 272 272 272 272 272 273 273 274 274 274 274 274 274 274 275 275 274 274 274 274 274 275 275 276 277 277 278 279 279 279 278 278 278 278 278 278 278 277 277 277 277 278 278 278 278 278 278 278 279 279 280 280 280 280 280 280 279 279 279 279 279 279 279 279 279 279 280 280 280 280 280 280 281 281 281 281 281
270 270 270 271 271 271 271 271 271 271 271 271 271 272 272 273 273 273 273 273 273 274 274 275 274 273 273 273 273 274 274 274 275 275 276 276 277 278 278 278 278 278 278 278 278 278 278 277 277 277 278 278 278 278 278 278 278 278 278 279 279 279 279 279 279 279 279 278 278 278 279 279 279 279 278 278 279 279 279 280 280 280 280 281 281 281
269 269 269 270 270 270 270 271 271 270 270 270 271 271 272 273 273 273 272 273 273 273 274 274 273 273 272 272 273 273 273 273 273 274 274 275 276 277 277 278 278 278 278 278 278 278 278 278 278 278 277 277 277 277 277 278 278 278 278 278 278 278 278 278 278 278 278 278 278 278 278 278 278 277 277 277 278 278 279 279 279 280 280 280 280 280
269 269 269 269 269 269 270 270 270 270 270 270 270 270 271 272 272 272 271 272 272 273 273 273 272 272 272 272 273 273 273 272 272 273 273 274 275 276 276 277 277 277 277 277 278 277 278 278 278 278 278 277 277 277 277 277 277 277 277 278 278 278 277 277 277 278 278 278 277 277 277 277 277 276 276 276 277 277 278 278 279 279 280 280 280 280
269 268 269 269 269 269 269 269 270 269 269 269 269 270 270 271 272 272 271 271 272 272 272 272 272 271 271 272 272 273 273 272 272 273 273 273 274 275 275 276 276 276 276 277 277 277 277 278 278 278 278 278 277 277 277 277 277 277 277 277 278 277 277 277 277 278 278 277 277 277 277 277 277 276 276 275 275 276 277 277 278 279 279 279 280 280
269 268 268 269 269 269 269 269 269 269 269 269 269 269 269 270 270 270 271 271 271 271 272 272 271 271 271 271 272 272 272 272 272 272 272 273 274 274 275 275 275 275 275 275 275 276 276 276 278 279 280 279 279 278 277 277 277 277 277 277 277 277 277 277 277 277 277 277 277 277 277 277 277 276 276 275 275 275 276 277 277 278 279 279 279 279
269 269 268 268 268 269 269 269 269 269 269 269 269 269 269 269 269 270 270 270 271 271 271 272 272 272 271 271 271 272 272 272 271 272 272 273 274 274 274 274 274 274 274 274 274 274 274 274 275 277 279 281 281 280 278 277 277 277 276 276 276 276 276 276 276 277 277 277 277 277 276 276 276 276 276 275 275 275 275 276 277 277 278 279 279 279
Wind_Speed
2 3 3 5 6 6 7 8 8 8 6 5 5 5 5 5 4 4 5 7 7 8 7 8 8 9 10 13 15 16 17 17 17 17 17 17 16 16 16 16 16 16 16 17 17 17 18 18 19 19 19 19 19 18 17 17 16 16 16 16 16 17 17 17 17 17 17 17 17 17 17 17 17 16 16 16 15 14 14 13 12 12 11 11 10 10
2 3 3 5 6 6 5 8 8 8 8 7 6 6 7 7 5 4 5 6 7 7 7 8 8 9 10 11 13 16 16 17 17 17 17 17 17 17 16 16 16 16 16 16 16 17 17 17 18 18 18 18 18 18 18 17 17 16 16 16 16 17 17 17 17 17 17 17 17 17 17 17 17 16 16 15 15 14 13 13 12 11 11 10 10 10
3 3 3 4 5 5 5 7 7 8 8 8 8 8 9 9 7 5 5 4 5 6 7 7 8 9 10 10 12 15 16 17 17 17 17 17 17 17 17 16 16 16 16 16 16 16 16 16 17 17 17 18 18 18 17 17 16 16 15 15 15 16 16 16 16 16 17 17 17 17 17 16 16 16 15 15 14 14 13 12 12 11 11 10 10 9
3 4 4 3 3 4 4 5 6 6 6 7 8 9 10 9 8 6 5 5 5 5 5 7 8 8 8 9 11 13 16 17 17 17 17 17 17 17 17 17 17 16 16 16 16 16 16 16 16 17 17 17 17 17 17 17 16 16 15 15 15 15 15 15 15 15 16 16 16 16 16 16 16 15 15 14 14 13 12 12 11 11 10 10 9 9
2 3 3 2 2 3 3 4 5 5 5 6 7 8 8 7 6 6 5 5 5 5 4 5 6 7 6 7 9 12 15 16 17 18 18 18 18 18 17 17 17 17 17 16 16 16 16 16 16 17 17 17 17 17 17 17 16 16 15 15 15 14 14 14 14 14 15 15 15 15 15 15 15 14 14 13 13 12 12 11 11 10 10 9 9 8
2 2 2 2 2 3 3 4 5 5 5 5 6 6 6 5 5 5 5 5 5 4 4 3 3 3 4 6 8 11 14 15 16 17 18 18 18 18 18 18 18 17 17 17 17 16 16 16 16 17 17 17 17 17 17 17 17 16 16 15 15 14 14 14 14 14 14 14 14 14 14 14 13 13 13 13 12 12 11 11 11 10 10 9 8 8
2 1 1 2 2 2 2 3 4 5 5 5 5 5 5 5 5 5 5 5 5 4 4 3 3 2 2 4 6 9 12 13 15 16 17 18 18 18 18 18 18 17 17 17 17 16 16 16 16 17 17 17 17 18 18 17 17 16 16 15 15 15 15 15 14 14 14 14 13 13 13 12 12 12 11 11 11 11 11 10 10 10 9 8 8 7
3 2 1 2 2 2 2 2 2 3 5 5 5 5 5 5 5 4 5 5 5 4 3 3 3 3 2 2 4 6 9 10 11 12 14 15 16 17 17 17 17 17 17 17 16 16 16 16 16 16 17 17 17 17 17 17 16 16 15 15 15 15 15 15 15 14 14 14 13 13 12 11 11 10 10 10 10 10 10 10 9 9 9 8 7 7
4 3 2 2 2 2 3 2 1 1 1 4 6 6 6 6 6 5 4 4 4 3 3 3 3 3 2 2 3 4 6 8 8 8 10 10 12 13 15 16 16 16 16 16 16 16 16 16 16 16 16 17 17 17 17 16 16 15 15 14 14 14 14 15 15 15 14 14 13 13 12 11 11 10 9 9 9 9 10 9 9 9 8 7 7 6
4 4 3 2 2 2 3 2 1 1 1 1 3 5 7 8 7 6 5 4 3 2 2 3 4 4 3 3 2 3 5 6 7 7 8 8 9 11 12 12 13 14 15 15 15 15 15 15 15 15 15 16 16 16 16 15 15 15 14 14 14 14 14 14 15 15 15 14 14 13 13 12 11 10 9 9 9 9 9 9 9 8 8 7 6 6
3 3 3 2 2 2 2 2 2 1 1 1 2 3 4 6 7 7 8 6 5 3 3 3 3 3 3 2 2 2 3 5 6 7 7 7 8 10 10 10 11 11 13 13 13 13 13 13 14 14 14 15 15 15 15 15 14 14 14 13 13 13 14 14 15 15 15 15 14 14 13 13 12 11 10 10 10 10 10 9 9 8 8 7 7 6
2 2 2 2 2 2 2 2 2 2 2 3 3 3 3 3 5 6 8 8 7 6 5 3 2 2 3 2 2 1 2 4 5 5 5 5 6 7 8 8 9 10 11 11 11 11 11 11 12 12 13 13 14 14 14 14 13 13 13 13 13 13 14 14 14 15 15 15 15 15 14 14 13 12 12 11 11 11 10 9 8 8 8 7 7 7
2 2 2 2 2 2 2 2 3 3 3 3 4 4 4 4 4 5 6 7 7 7 6 4 3 3 3 3 2 1 2 3 4 4 4 3 3 3 4 5 6 6 7 8 8 9 10 10 11 11 12 13 13 13 13 13 13 13 13 13 13 14 14 14 14 15 15 15 15 15 15 14 14 13 13 12 12 11 10 10 9 9 9 8 8 7
2 2 2 2 2 2 2 3 4 4 4 3 3 3 4 4 4 4 5 5 6 6 6 6 4 3 2 2 2 1 2 4 4 4 4 3 3 2 2 3 4 4 5 6 6 7 8 9 9 10 11 12 13 13 13 13 13 13 13 14 14 14 14 14 15 15 15 16 16 15 15 15 14 14 14 13 13 12 11 11 10 10 10 9 9 8
2 2 3 3 3 2 2 2 2 3 2 2 1 2 2 3 4 4 5 6 6 6 6 6 5 3 2 2 2 1 0 3 4 4 4 3 3 3 2 3 4 4 4 4 4 5 6 7 8 8 10 11 12 12 13 13 14 14 14 14 15 15 15 15 16 16 16 16 16 16 16 15 15 14 14 14 13 13 12 12 11 11 10 10 9 9
2 2 4 4 3 3 2 2 2 2 2 2 2 2 3 4 5 5 6 7 7 6 6 6 5 3 2 1 1 1 1 2 4 5 5 3 3 3 2 2 4 4 4 4 3 3 4 5 6 7 9 11 12 13 14 14 15 15 15 16 16 16 16 16 16 17 17 17 16 16 16 15 15 15 14 14 13 13 13 12 11 11 10 10 9 9
2 2 3 4 4 3 3 3 3 2 2 2 1 2 3 4 5 6 6 7 7 6 6 6 5 3 2 1 1 1 1 1 4 5 5 3 2 3 3 1 4 5 4 4 4 3 4 5 6 6 8 11 13 15 16 16 16 17 17 17 17 17 17 17 17 17 17 17 16 16 16 15 15 15 14 14 14 13 13 12 12 11 10 10 9 9
4 4 4 4 4 3 3 3 3 3 2 2 1 1 1 2 4 5 6 7 7 7 6 6 5 4 3 2 1 1 1 1 4 5 5 4 2 2 3 1 3 5 5 4 4 3 4 5 6 7 9 13 15 16 17 17 18 18 18 18 18 18 18 18 18 17 17 17 16 16 16 15 15 15 14 14 13 13 13 12 11 11 10 10 9 9
5 5 5 4 4 3 3 3 3 3 2 2 1 1 1 2 3 4 5 6 6 7 7 7 6 5 4 3 2 1 1 1 4 6 5 4 2 2 3 2 3 5 5 4 4 3 3 5 7 9 12 15 17 17 18 18 18 19 19 19 19 19 18 18 18 18 17 17 16 16 15 15 15 14 14 14 13 13 12 12 11 11 10 9 9 8
6 6 5 4 3 3 4 4 4 3 3 2 2 1 1 2 3 4 5 5 5 5 6 6 6 5 4 4 3 2 1 2 4 5 5 4 3 2 2 2 4 5 5 4 3 2 3 6 8 11 14 16 17 18 19 19 19 19 19 19 19 19 18 18 18 18 17 17 16 16 15 15 14 14 13 13 13 12 12 11 11 10 10 9 8 8
7 7 6 4 4 3 4 4 4 4 4 3 2 1 1 1 1 2 3 4 4 4 4 3 3 3 4 5 4 2 1 1 3 4 4 4 3 2 2 2 4 5 5 3 2 2 3 6 8 9 12 15 17 18 19 19 20 20 20 19 19 19 18 18 18 17 17 16 16 15 15 14 14 13 13 12 12 12 11 11 10 10 9 9 8 8
7 7 6 6 6 5 4 4 5 6 5 4 3 2 2 2 1 1 1 2 3 3 3 3 4 4 4 5 4 2 2 0 2 4 4 4 3 2 1 2 4 5 5 3 2 3 4 6 7 8 11 15 17 18 19 19 20 20 20 19 19 18 18 17 17 17 16 16 15 15 14 14 13 13 12 12 11 11 11 10 10 10 9 9 8 7
7 7 7 8 7 6 5 5 5 5 6 5 4 4 2 2 2 2 1 2 3 4 5 6 6 5 5 5 4 3 3 2 1 3 5 5 4 3 1 2 3 4 4 3 3 4 5 5 6 8 12 15 17 18 18 19 19 19 19 19 19 18 18 17 17 16 16 15 15 14 14 13 12 12 11 11 10 10 10 10 10 9 9 8 8 7
8 8 8 8 7 7 6 5 5 5 5 5 5 4 4 3 3 2 2 3 4 5 6 7 7 6 5 5 4 4 4 3 2 1 4 5 4 3 2 2 4 5 4 4 4 4 5 5 5 6 9 14 16 17 17 18 18 19 19 19 18 18 17 17 16 16 15 15 14 14 13 12 12 11 11 10 10 9 9 9 9 9 9 8 7 7
10 10 9 10 11 11 10 9 8 8 7 6 5 5 5 4 4 4 4 4 5 6 6 7 7 6 4 4 4 3 3 4 3 2 3 4 4 4 2 3 4 5 4 4 4 5 5 5 6 6 6 10 13 16 16 17 18 18 18 18 18 17 17 16 16 15 15 14 14 13 12 12 11 10 10 9 9 9 9 9 9 9 9 8 7 7
15 16 16 17 18 19 19 18 17 16 14 10 7 6 5 4 4 5 5 4 4 5 6 7 6 5 3 3 3 2 2 3 3 3 2 4 5 4 3 3 4 5 5 4 4 5 6 6 6 6 5 6 9 13 15 16 17 17 17 17 17 17 16 16 15 15 14 14 13 13 12 11 11 10 9 8 8 8 8 8 8 8 8 7 7 6
23 23 24 24 23 23 23 23 22 22 21 18 14 10 6 4 4 5 6 4 2 2 5 6 6 5 3 3 2 2 2 3 4 4 3 3 4 5 3 3 4 5 6 4 4 5 6 6 6 6 6 5 5 8 13 15 16 16 17 17 16 16 16 15 15 15 14 14 13 12 11 11 10 9 8 8 7 7 7 8 8 8 7 6 5 5
24 23 23 23 23 22 22 22 22 23 23 22 20 16 10 7 6 6 5 4 3 1 3 6 6 5 4 3 2 2 3 3 4 4 4 2 3 5 4 4 4 5 6 5 4 5 7 6 5 5 5 5 5 5 8 11 13 14 15 16 16 15 15 15 14 14 14 13 13 12 11 10 9 8 8 7 7 6 7 7 7 7 6 4 3 3
20 21 21 21 21 20 20 19 20 21 23 23 21 18 12 8 7 6 4 4 3 2 2 4 5 5 5 4 3 3 4 4 4 4 4 2 3 4 4 4 5 5 5 5 4 4 5 5 4 4 4 5 5 5 6 7 9 11 13 14 14 14 14 14 14 14 14 13 12 12 11 10 9 8 7 6 6 6 6 6 6 5 4 3 3 2
15 16 17 17 17 17 16 15 16 18 21 21 20 17 12 9 7 5 4 4 4 3 3 4 4 5 5 5 4 3 3 3 4 4 3 1 2 4 5 5 5 4 4 5 4 4 3 3 3 3 3 3 4 4 4 4 5 6 7 10 11 12 13 13 13 14 13 13 12 11 10 9 8 7 6 6 5 5 5 5 4 4 2 2 2 2
12 12 12 12 12 12 12 11 12 13 15 17 16 15 12 9 7 6 6 5 5 4 4 4 4 4 4 4 3 3 2 2 3 4 3 1 2 3 5 5 4 3 2 3 4 5 4 2 2 2 2 2 2 2 2 2 3 3 4 5 7 8 11 11 12 12 13 12 12 11 10 9 8 7 6 5 5 5 4 4 3 3 2 2 2 2
10 10 9 10 9 9 9 9 9 9 10 11 11 11 11 10 8 7 6 6 6 5 5 5 5 4 4 3 3 3 2 1 3 4 3 2 1 2 2 4 3 2 0 1 3 5 5 4 3 2 2 2 2 2 2 2 2 2 3 4 4 5 8 9 9 10 10 11 11 10 10 9 8 7 6 6 5 5 4 4 3 3 2 2 2 2
9 8 8 8 8 8 8 8 8 8 9 9 9 9 9 9 9 8 7 7 6 6 5 5 5 5 5 5 5 4 3 2 3 4 4 2 2 2 1 2 2 2 1 2 2 3 4 4 4 4 3 2 2 2 2 2 2 3 3 3 4 4 5 6 6 7 7 8 8 8 8 8 7 7 6 6 5 5 5 5 4 3 2 2 2 2
9 9 8 8 8 8 8 8 8 8 8 8 8 8 8 8 8 8 8 7 7 7 6 6 5 5 5 5 4 4 3 3 4 5 4 2 2 2 2 2 1 1 1 2 3 3 4 5 5 5 4 3 2 2 2 2 3 3 3 3 3 3 3 4 4 4 5 5 5 5 5 5 5 5 5 5 5 5 5 5 5 5 4 3 2 2
8 8 8 8 8 8 8 8 8 8 8 8 8 8 8 8 7 7 8 7 7 7 7 7 6 5 5 4 4 4 3 3 5 6 5 3 2 2 2 2 2 1 1 2 3 3 4 5 6 6 5 4 3 2 2 2 2 3 3 3 3 3 3 3 3 3 4 4 4 4 3 3 3 3 4 4 5 5 5 5 6 6 6 5 4 3
8 8 8 8 8 7 8 8 8 8 8 7 7 7 7 7 7 7 7 7 7 8 8 8 7 7 6 5 5 5 4 4 5 6 5 3 3 3 2 2 2 2 1 2 3 3 4 5 6 6 6 4 3 2 2 1 2 3 3 3 3 3 3 3 3 3 3 3 3 3 3 2 2 2 3 4 4 5 5 5 6 6 7 7 6 5
8 8 8 8 7 7 7 7 7 7 7 6 6 7 7 7 7 7 7 7 7 7 8 8 9 9 9 7 6 5 4 4 5 6 6 5 4 3 3 2 2 2 2 2 3 3 4 5 5 5 5 4 3 2 2 2 2 3 3 3 3 3 3 3 3 3 3 3 3 3 3 2 2 2 2 3 3 4 4 5 6 6 7 7 7 6
8 8 7 7 7 7 6 6 6 6 6 6 6 6 6 6 7 7 6 7 7 7 7 7 8 9 12 11 9 8 7 7 8 8 8 6 5 4 4 3 3 3 3 2 3 3 4 5 5 4 3 3 3 3 3 2 2 3 3 3 3 3 3 3 3 2 2 3 3 3 3 2 2 2 2 2 2 2 2 3 4 5 6 6 6 6
7 7 7 7 7 6 6 6 6 5 5 5 5 5 5 6 6 6 6 6 7 7 8 7 7 8 10 11 11 11 10 10 10 10 10 8 6 5 5 4 3 3 3 3 3 3 3 3 3 4 4 3 3 3 2 2 2 3 3 3 3 3 3 2 2 2 2 2 2 2 2 2 2 1 1 1 1 1 2 2 3 3 4 3 4 4
7 7 7 7 6 6 6 5 5 5 5 5 5 5 5 5 5 5 5 6 6 6 7 7 7 7 8 9 10 11 11 10 10 10 9 8 7 5 4 4 4 3 3 3 3 3 3 3 3 3 4 4 3 3 2 2 2 2 3 3 2 2 2 2 2 2 2 2 2 2 2 2 1 1 1 1 2 2 2 2 2 3 3 3 3 3
6 6 6 5 5 6 6 5 5 5 5 5 5 5 5 4 4 4 4 4 5 5 5 6 6 7 8 8 9 10 10 10 10 10 9 9 8 7 5 4 3 3 3 4 4 4 4 4 4 3 3 3 4 4 3 3 3 3 3 2 2 2 3 3 2 2 2 2 2 2 2 2 2 2 1 2 2 2 2 2 2 2 2 2 2 2
6 6 5 5 5 5 5 5 5 5 5 5 5 5 5 5 4 4 3 4 4 4 4 4 4 6 7 7 8 8 9 9 9 10 10 10 9 8 6 5 4 3 3 4 4 5 4 4 4 3 3 3 3 3 3 3 2 2 2 2 2 2 3 3 3 2 2 2 2 2 2 2 2 2 2 2 2 2 2 2 2 2 2 2 2 2
5 5 4 4 4 4 5 5 5 5 5 5 5 5 5 5 4 4 4 3 4 4 4 3 4 4 5 6 6 6 7 7 8 9 9 9 9 8 7 6 5 4 4 4 4 4 5 5 4 4 3 2 2 3 3 3 3 2 2 1 1 1 2 2 2 2 2 3 3 3 2 2 2 1 1 1 1 1 2 2 2 3 3 2 2 2
4 4 4 4 4 4 4 4 5 5 5 5 5 5 5 5 5 5 4 3 3 3 3 3 3 4 5 5 5 5 5 6 7 8 9 9 9 8 7 7 6 5 5 4 3 3 4 4 4 3 2 2 2 2 2 2 2 2 2 1 0 0 1 2 2 2 2 3 3 3 3 2 2 1 1 1 1 1 1 2 2 2 2 2 2 2
4 4 4 4 4 4 4 4 4 4 4 5 5 5 5 5 5 5 4 4 4 4 3 3 2 3 4 4 4 4 3 4 5 6 6 8 9 9 7 6 6 5 5 4 3 3 3 3 3 3 2 2 2 2 2 2 2 2 2 2 1 2 2 3 3 2 2 2 2 3 3 2 2 2 2 2 2 2 2 2 2 2 2 2 2 2
4 4 4 4 4 4 4 4 4 4 4 4 4 5 5 5 5 4 4 4 4 4 4 3 3 3 3 3 3 3 3 3 4 4 4 5 6 6 6 6 5 4 4 4 3 3 3 3 3 3 2 2 2 2 2 1 1 2 2 2 2 2 3 3 3 3 2 2 3 3 3 3 2 2 2 3 3 2 2 2 2 2 3 3 3 3
4 4 4 4 3 3 3 3 3 3 4 4 4 4 4 4 4 4 4 4 4 4 4 4 4 4 4 3 3 3 3 4 4 4 4 5 5 5 5 5 4 4 3 3 3 3 2 2 2 2 2 2 2 2 2 1 1 1 1 2 2 3 3 3 3 2 2 3 3 3 4 3 3 3 3 3 3 3 2 2 2 2 3 3 3 3
4 4 4 3 3 3 3 3 3 3 4 4 4 4 4 5 5 5 4 4 4 3 3 4 4 4 4 4 4 4 4 4 4 4 4 4 5 5 5 4 4 3 3 3 3 3 2 2 2 1 0 1 1 2 2 2 1 1 1 2 2 3 3 3 3 2 2 3 3 4 4 4 3 4 4 4 3 3 3 2 2 2 2 3 3 3
4 4 4 3 3 3 3 3 3 3 4 4 4 3 4 5 5 5 4 4 3 3 3 4 4 4 4 4 4 4 4 4 3 3 4 4 4 4 4 4 4 3 2 2 3 3 3 3 2 1 1 1 1 1 2 2 2 2 2 2 2 2 3 3 2 2 2 3 3 4 4 3 3 3 3 4 4 4 4 3 3 2 2 2 3 3
4 4 4 3 3 3 3 3 4 4 4 4 3 3 3 4 4 4 4 3 3 3 3 4 4 4 4 4 4 4 4 3 3 3 3 3 3 3 4 4 4 3 2 2 2 2 2 2 2 2 1 1 1 2 2 3 3 2 2 2 2 2 2 2 2 3 3 3 3 3 3 3 3 2 3 3 4 4 4 4 3 2 2 2 3 3
4 4 3 3 3 3 3 3 4 4 4 4 3 3 3 3 3 3 3 3 3 3 3 4 4 4 4 4 4 4 4 4 4 4 4 3 3 3 4 4 3 3 2 2 2 1 1 2 2 2 2 2 2 2 2 2 3 3 3 3 2 2 2 2 2 3 3 3 3 3 3 3 2 2 2 3 4 4 4 4 3 3 2 2 3 4
Wind_Direction
117 128 143 158 157 158 170 175 170 160 154 148 143 140 140 136 135 146 167 167 156 144 139 141 145 148 148 146 145 144 143 142 141 140 139 137 136 135 134 134 134 135 136 136 136 136 136 136 137 137 138 138 138 138 138 138 139 139 139 138 137 136 134 133 131 129 127 125 123 121 120 119 117 116 115 114 112 110 108 107 105 103 100 97 94 91
130 130 139 156 156 154 159 172 171 164 157 154 150 147 145 141 143 156 175 165 154 146 143 144 146 149 150 147 146 144 144 143 143 142 141 140 139 138 137 137 137 137 138 137 137 137 137 138 138 139 139 139 139 139 139 139 139 140 140 138 137 135 133 130 128 126 124 122 120 119 118 117 117 116 115 114 113 112 110 109 107 105 102 99 96 92
145 142 142 153 154 152 151 168 171 167 158 155 153 152 151 150 155 164 170 155 148 146 147 148 148 148 149 148 146 145 145 144 144 143 143 142 142 141 141 141 141 141 140 140 141 141 141 141 141 141 141 141 140 140 139 140 140 140 140 138 135 133 130 128 125 123 122 120 119 118 117 117 116 116 116 115 115 114 114 112 110 108 105 101 97 93
149 147 145 147 145 143 142 160 164 161 154 150 148 149 151 154 160 165 160 148 143 143 145 150 151 150 149 149 148 147 147 146 146 145 145 144 144 144 144 144 144 144 144 144 145 146 146 145 145 144 144 143 142 141 140 141 141 140 140 137 134 131 128 125 123 122 120 120 119 118 118 117 117 117 117 118 118 118 117 116 113 110 106 102 97 93
145 140 140 140 127 118 124 150 152 146 138 138 142 146 150 150 152 153 147 140 136 135 136 146 150 151 151 152 152 151 150 149 148 147 147 146 146 146 146 147 147 147 148 149 150 150 150 149 149 147 146 145 143 143 142 142 142 141 140 137 134 131 128 125 123 122 121 120 120 120 119 119 119 120 121 121 122 122 121 118 114 110 106 102 97 93
127 116 122 116 107 108 120 147 147 141 134 135 138 142 145 142 141 142 142 139 133 126 115 110 119 135 146 152 154 154 153 152 151 149 149 148 148 149 149 149 150 151 152 153 154 154 154 153 151 150 148 147 146 145 144 144 143 142 140 138 135 132 129 127 125 123 122 122 122 122 122 122 122 123 124 124 124 123 121 118 114 110 106 102 97 93
114 94 92 89 93 101 115 138 144 143 141 139 139 138 138 136 137 141 145 142 135 125 110 88 72 72 98 139 150 153 155 153 152 151 150 149 150 150 151 152 153 154 155 156 157 157 156 155 154 152 151 149 148 147 146 145 144 143 141 138 136 133 131 129 127 126 126 125 125 124 124 124 124 124 124 124 123 122 121 118 114 110 106 102 98 93
125 111 90 91 94 98 97 100 120 137 145 145 144 142 140 137 138 141 143 138 132 125 118 102 87 74 66 114 137 148 157 155 153 152 150 150 150 151 152 153 154 156 158 159 159 159 158 157 156 154 153 151 150 149 147 146 144 143 141 139 137 135 133 132 131 130 129 129 128 127 126 125 124 123 123 122 121 121 119 117 114 110 106 102 98 93
131 126 99 87 96 106 108 83 53 52 127 146 149 148 146 144 141 138 136 133 127 120 123 123 119 111 95 111 127 145 159 158 157 155 153 153 153 154 153 154 155 157 160 160 160 160 159 158 156 155 153 152 150 149 148 146 144 143 141 139 138 136 136 135 135 134 133 132 131 130 128 127 126 124 123 121 120 118 117 115 112 109 106 102 98 93
121 120 106 83 80 96 114 106 77 26 6 132 149 150 149 148 146 143 143 139 132 123 131 146 144 137 122 114 124 146 160 157 152 148 148 148 151 154 154 153 155 158 160 161 160 160 158 157 156 154 153 151 150 149 147 146 144 143 141 140 139 138 138 138 137 137 136 135 134 133 131 131 130 127 124 120 118 116 113 112 110 108 106 103 99 94
107 106 102 92 76 66 81 96 98 86 62 92 120 134 142 147 149 150 151 150 148 145 148 152 143 131 117 99 95 120 152 153 147 141 138 137 143 149 150 151 153 155 158 158 158 157 156 154 153 152 151 150 149 148 147 146 145 144 143 142 141 140 140 139 139 139 138 137 136 135 134 134 133 129 124 120 116 113 111 109 107 106 106 104 99 94
106 100 96 99 92 79 71 83 93 107 125 123 124 129 142 150 153 154 156 156 156 153 148 136 108 82 74 68 62 75 126 140 138 133 130 131 138 144 145 148 150 152 155 156 155 154 152 150 150 149 150 150 149 149 148 147 146 144 144 142 142 141 140 140 139 139 138 137 136 135 135 134 132 128 123 118 114 111 108 106 105 104 104 102 98 93
96 97 100 102 97 93 97 115 124 134 149 149 149 151 154 157 157 155 154 154 153 150 143 133 111 79 63 53 44 61 115 123 120 113 106 101 106 122 138 143 146 151 156 157 158 156 153 151 150 151 151 151 150 148 147 146 145 144 143 142 141 140 139 138 137 136 135 135 134 133 133 131 128 124 120 116 112 109 106 103 101 100 100 98 95 90
92 92 101 97 89 87 101 134 145 151 156 153 152 152 150 151 151 148 142 141 141 140 135 129 118 98 68 42 26 30 114 122 119 110 97 76 58 56 104 129 135 141 150 155 158 160 160 158 156 154 154 153 150 147 145 144 143 142 141 140 139 137 135 134 133 132 131 130 130 129 128 125 123 120 116 113 110 106 103 101 99 97 96 94 90 86
100 104 109 101 92 84 88 113 128 132 128 111 107 118 131 140 144 143 136 133 133 132 130 123 114 100 74 42 11 354 116 133 127 117 104 75 43 30 56 117 124 124 130 134 141 150 158 161 160 158 158 155 151 147 144 142 140 138 137 135 133 132 130 129 128 127 127 126 125 124 123 121 118 116 113 110 106 103 101 98 97 95 93 89 86 81
97 109 114 105 94 79 64 64 73 81 80 79 96 127 146 150 149 145 139 139 140 140 139 133 125 111 78 43 3 335 281 143 130 121 114 90 44 19 18 115 122 117 114 115 119 128 141 149 152 152 153 149 145 141 139 139 136 133 131 129 128 126 125 124 123 123 122 122 121 120 118 116 114 112 109 106 103 101 98 96 94 92 89 86 82 77
61 78 96 96 90 77 57 50 51 56 59 63 95 144 164 159 153 148 146 147 148 151 153 150 146 139 125 82 353 319 292 143 127 120 115 97 49 6 353 104 126 123 114 110 112 120 130 137 141 142 142 140 137 135 134 132 131 129 127 125 124 122 121 121 120 119 119 118 117 116 114 113 111 109 106 103 101 98 96 94 92 89 86 83 79 74
42 46 61 76 79 73 58 49 41 36 33 34 45 93 169 164 156 152 152 153 156 159 162 161 159 155 148 156 172 234 283 150 127 120 113 102 62 6 349 58 112 117 110 103 101 108 122 133 137 136 134 133 131 130 129 128 127 125 124 123 121 120 119 119 118 117 116 115 114 113 112 110 108 106 104 102 99 97 95 93 90 88 85 81 77 71
48 44 48 58 64 63 57 48 39 28 16 8 12 46 140 161 161 158 158 160 162 163 162 166 167 163 151 152 152 167 259 158 128 119 112 105 78 21 355 49 96 103 98 91 88 93 111 122 125 126 128 128 128 127 126 125 124 123 122 121 120 119 118 117 117 116 115 113 112 111 109 108 106 104 102 101 99 97 95 93 91 88 85 81 76 70
55 45 38 44 53 59 54 44 34 22 5 349 346 360 115 151 158 160 161 161 161 162 163 166 162 152 137 133 132 141 240 155 124 114 109 106 95 59 15 68 99 101 92 79 68 75 107 117 119 121 125 125 125 124 124 123 122 121 120 119 118 117 117 116 115 114 113 111 110 109 107 106 104 103 101 100 98 97 95 94 92 89 86 82 76 69
61 51 38 37 43 51 50 37 27 17 6 358 1 20 47 85 127 147 153 152 153 153 152 140 120 105 109 119 123 129 277 167 132 118 109 104 95 78 44 84 101 103 96 78 53 57 99 112 116 120 123 122 122 122 121 120 120 119 118 117 116 116 115 114 113 112 111 110 109 108 106 105 103 101 100 99 98 97 96 95 94 91 88 83 76 69
66 60 48 45 46 48 48 36 25 18 14 19 27 37 36 38 51 78 106 125 130 126 113 95 83 81 87 98 98 81 348 326 134 126 115 112 109 102 70 98 105 105 101 84 58 52 76 97 107 115 119 119 118 118 118 118 117 117 116 115 114 113 112 111 111 110 110 109 108 106 105 103 102 100 99 98 98 98 97 96 95 92 88 83 76 68
66 64 57 52 50 49 46 38 28 21 19 29 36 41 37 33 32 31 31 77 96 99 95 91 88 84 83 86 79 59 23 9 65 119 117 120 124 127 118 116 108 103 99 84 64 54 56 72 90 105 112 113 113 114 115 115 115 114 113 111 111 110 109 109 109 108 107 107 106 104 103 102 100 99 98 97 97 97 97 96 94 91 87 81 74 66
59 60 58 55 52 49 47 41 34 28 25 29 33 36 36 37 38 41 46 76 93 101 104 102 96 90 85 84 76 57 30 7 6 76 115 120 125 132 142 126 111 103 92 71 55 51 54 56 64 83 104 107 109 110 111 111 111 110 109 109 108 108 108 107 107 106 105 104 103 102 101 100 98 97 96 96 95 95 95 94 92 89 84 78 71 63
52 53 53 51 49 47 46 44 41 38 35 33 29 27 26 35 47 62 72 84 97 107 113 108 103 98 95 86 76 56 28 7 2 31 111 116 122 127 132 125 115 107 94 72 60 58 61 55 51 58 83 100 105 106 107 107 107 107 107 106 107 106 106 106 105 104 103 102 101 99 98 97 96 95 94 93 93 93 93 92 90 86 82 76 69 61
49 48 47 47 46 45 44 44 43 41 41 39 33 24 15 26 48 63 67 71 89 110 118 112 109 105 101 90 78 60 30 13 10 21 76 112 122 125 124 119 114 111 105 86 70 65 66 58 49 43 45 74 96 103 104 104 104 104 105 105 105 105 105 104 104 103 101 100 98 96 95 93 92 91 90 90 89 90 91 90 88 85 82 77 70 61
48 48 47 45 43 42 40 40 40 40 40 39 35 30 19 28 48 57 53 38 40 96 126 122 118 114 102 90 77 61 35 25 18 14 13 96 122 128 132 126 120 117 111 95 76 67 67 60 48 38 29 27 58 89 99 101 102 102 102 102 102 102 103 103 102 101 100 98 96 94 92 90 88 87 85 85 85 86 88 88 87 85 83 80 74 65
46 45 43 41 40 38 37 36 36 37 38 37 35 32 27 33 45 50 39 7 350 5 128 129 128 125 115 104 88 66 48 37 22 7 351 55 116 128 137 135 130 124 116 103 83 69 64 60 50 37 25 14 16 40 72 85 93 97 97 97 98 99 100 100 100 99 97 95 93 91 88 86 84 83 81 80 81 83 86 88 88 86 84 82 80 74
42 41 41 39 37 36 34 33 33 34 36 36 35 33 31 35 42 41 21 351 346 10 94 117 123 123 120 115 102 79 55 40 19 1 344 37 107 125 137 142 140 132 122 114 96 76 61 54 46 36 28 20 14 16 29 53 74 86 88 91 93 94 96 97 97 96 94 92 90 87 85 83 81 79 77 75 76 78 82 87 89 89 86 83 80 76
37 37 36 35 33 32 31 30 30 31 33 34 34 33 33 35 36 31 10 358 4 28 66 87 102 114 121 120 112 92 60 32 10 357 352 45 113 131 144 150 150 144 133 126 116 101 80 59 45 37 36 33 29 24 20 32 50 67 78 85 88 90 92 93 93 92 90 88 86 83 81 79 77 75 72 71 70 71 75 82 87 90 90 85 81 73
35 34 33 31 30 28 28 27 27 28 29 30 30 30 30 31 30 24 15 11 16 28 48 64 78 91 108 118 118 110 86 30 4 358 3 39 111 135 150 154 153 149 144 136 135 134 128 112 81 55 53 57 56 50 41 45 51 61 73 81 84 87 90 91 90 88 86 83 80 78 76 74 72 70 67 64 62 61 63 68 76 86 87 83 78 72
38 36 34 31 29 27 25 25 25 26 27 28 27 27 26 26 25 23 20 19 20 25 36 47 52 54 53 65 83 95 96 48 6 2 12 40 80 109 141 149 146 139 359 92 131 138 136 138 135 121 100 91 84 78 72 69 66 68 78 83 84 86 88 88 87 85 82 78 75 72 69 67 66 64 61 57 54 52 51 53 59 69 79 78 74 69
41 39 35 33 30 28 26 25 25 26 28 28 27 26 24 23 23 23 23 23 23 26 32 42 49 53 55 60 67 75 83 54 15 7 16 46 73 76 69 119 129 126 58 34 64 95 113 126 131 131 122 113 105 98 88 73 63 62 72 82 86 87 87 86 84 82 79 75 71 67 63 61 59 57 55 51 48 45 44 45 47 51 60 69 70 65
42 40 36 34 32 30 28 27 28 28 29 29 27 26 24 23 22 22 23 25 27 29 32 36 43 51 62 71 76 76 72 42 16 9 18 49 76 80 65 70 89 106 96 71 68 76 88 111 123 129 125 121 112 101 87 68 58 55 61 75 84 89 87 85 85 83 79 75 71 65 60 57 54 52 50 46 43 41 41 43 44 45 45 49 55 57
42 39 36 33 32 31 29 28 28 29 29 29 28 26 25 24 23 22 22 25 30 34 37 37 38 41 49 63 72 72 59 28 11 8 18 45 75 85 76 51 36 34 65 88 96 100 107 121 129 132 130 127 121 107 83 67 61 61 62 69 76 82 82 81 82 84 83 79 74 68 61 57 53 50 48 45 42 42 43 45 46 45 43 43 42 41
41 39 35 32 30 30 29 27 27 28 28 28 28 27 27 27 27 26 24 26 31 38 44 45 44 43 43 50 58 60 51 22 8 8 17 36 64 83 84 56 30 20 43 80 98 110 120 128 132 134 133 131 128 119 102 86 79 77 74 72 74 75 73 69 70 75 81 80 77 72 66 62 57 53 50 44 44 45 47 48 47 46 43 41 38 35
40 38 34 30 28 27 27 26 25 24 25 25 26 27 29 31 32 32 32 31 34 40 48 51 52 52 52 54 56 55 47 28 17 15 20 30 51 73 84 71 45 33 45 74 94 107 117 125 129 131 129 128 128 129 129 117 99 88 82 78 76 75 71 62 58 61 72 77 79 77 71 67 62 57 51 44 43 45 48 47 45 42 40 38 35 31
39 36 33 29 26 25 24 24 22 19 18 20 24 28 32 37 39 40 40 40 42 46 52 54 56 56 55 58 57 55 49 39 32 28 26 31 45 64 79 76 58 43 42 60 82 101 114 122 128 129 123 115 113 117 122 118 106 97 91 86 83 77 72 62 55 54 60 71 78 79 77 71 67 61 53 39 33 34 43 40 36 34 32 30 28 25
38 35 31 27 25 23 22 20 17 13 11 14 19 26 34 41 44 45 46 48 51 54 58 61 62 60 56 55 54 52 49 44 39 34 31 33 40 53 70 74 68 56 47 48 56 71 90 106 118 124 123 116 112 109 103 100 103 108 113 109 102 93 84 71 59 52 53 62 74 82 84 78 73 66 61 45 32 27 30 27 23 20 18 15 15 13
39 35 30 26 23 22 21 17 13 9 7 10 16 22 29 35 40 44 47 51 55 59 64 68 69 66 61 57 53 49 47 44 42 39 36 34 36 43 56 65 69 67 61 57 56 59 66 77 88 99 107 117 124 127 124 117 125 133 138 136 131 122 109 91 73 60 57 59 67 79 86 79 71 62 56 47 39 30 22 17 12 10 10 7 1 355
40 36 29 23 19 18 18 14 11 10 11 14 18 21 23 26 30 35 39 45 49 52 57 66 71 71 66 60 56 51 48 46 45 45 43 39 38 41 47 53 59 64 68 67 65 64 67 75 82 90 98 111 121 125 126 128 133 140 146 145 137 126 116 100 84 68 65 66 63 59 61 63 57 48 41 41 37 28 14 4 357 356 2 8 3 351
41 36 28 21 16 13 12 11 12 14 17 21 25 26 22 21 24 29 34 40 41 42 42 53 66 71 70 64 58 53 49 46 47 47 48 45 44 44 45 46 49 57 68 71 69 67 67 73 80 88 97 109 121 128 129 127 121 115 113 122 130 134 132 111 92 72 67 71 63 51 45 43 38 30 21 24 22 16 2 353 346 344 347 354 353 344
38 33 25 19 15 12 12 14 15 16 18 23 26 24 20 17 19 25 33 39 41 41 40 47 60 70 73 67 61 55 51 48 47 48 49 48 48 47 46 45 45 50 62 74 76 74 71 72 73 74 74 87 110 126 133 132 126 116 99 104 146 175 169 122 98 81 73 70 62 49 35 24 15 6 359 360 359 355 347 342 340 338 337 336 329 318
34 29 23 19 18 17 18 18 17 17 20 23 24 21 17 14 16 22 31 35 37 38 38 42 56 67 70 67 63 59 55 51 49 47 47 47 47 48 49 47 45 46 53 68 81 87 86 82 79 76 72 78 94 111 122 131 133 132 127 123 142 177 114 88 83 79 76 71 60 45 26 8 350 337 333 335 338 338 335 333 329 325 320 317 311 304
28 24 21 20 20 22 24 21 18 18 21 23 22 19 14 13 15 20 26 32 34 34 31 32 47 62 64 59 56 55 54 49 46 44 44 42 44 46 49 49 48 47 49 56 67 81 94 98 99 98 92 93 100 110 123 133 139 137 129 121 106 86 76 76 75 76 75 67 53 36 18 356 337 325 327 332 334 334 331 326 320 314 310 307 301 296
25 24 21 20 21 22 22 18 18 19 23 24 22 18 12 12 15 20 24 30 34 36 34 36 48 60 63 55 50 46 46 44 40 36 34 34 35 37 41 45 48 50 53 55 58 64 77 95 110 119 126 124 124 123 125 135 142 137 119 109 104 100 96 89 81 72 64 54 41 25 8 352 341 336 340 337 333 328 324 319 313 308 306 302 297 293
22 23 20 20 19 19 17 15 17 21 26 26 22 16 10 12 17 23 24 26 32 40 44 49 57 62 63 55 48 45 45 41 36 31 27 26 26 28 31 35 40 45 53 58 63 67 72 84 104 125 139 143 141 137 131 131 125 116 105 106 110 112 111 99 86 71 55 45 31 17 2 356 353 351 346 335 326 318 314 309 302 298 296 295 294 293
18 17 17 16 16 17 15 15 18 23 27 27 23 17 12 13 18 25 26 24 28 38 48 56 62 64 63 56 51 48 49 46 41 34 27 22 19 18 20 21 25 30 37 48 59 68 74 74 76 82 114 143 135 127 122 118 109 90 86 97 108 112 109 99 87 69 51 41 29 17 6 3 359 353 342 330 320 313 310 305 295 285 279 282 286 289
18 14 12 13 14 16 16 17 20 24 28 27 25 21 15 15 20 25 26 26 29 37 46 56 63 65 64 58 53 50 50 50 47 40 31 23 17 15 14 14 13 15 22 38 54 66 71 69 65 54 6 353 45 85 98 100 97 91 87 89 94 98 98 90 74 55 39 31 23 15 7 4 358 348 334 323 315 309 306 299 289 276 267 270 276 281
21 16 11 12 15 17 17 19 22 25 27 28 27 24 20 20 22 23 25 30 36 41 46 52 59 64 65 60 55 52 51 50 48 45 37 25 18 15 15 13 10 10 14 31 54 70 76 75 74 71 70 51 52 67 83 94 99 101 95 85 79 74 73 66 51 34 20 15 9 4 358 353 347 338 327 316 309 304 301 295 288 280 271 271 274 277
23 19 13 13 16 18 19 23 25 25 25 30 29 27 24 26 27 26 27 33 39 45 48 50 56 62 65 61 57 53 51 50 49 45 37 26 19 17 20 17 13 11 14 28 46 64 85 98 99 98 100 96 79 65 69 90 105 111 105 91 77 62 49 41 29 18 6 359 354 349 342 337 332 327 322 313 306 302 299 297 295 293 292 288 285 284